Regional Weather Roundup
Issued by NWS

Home | Current Version | Previous Version | Graphics & Text | Print | Product List | Glossary On
Versions: 1 2 3 4 5 6 7 8 9 10 11 12 13 14 15 16 17 18 19 20 21 22 23 24 25 26 27 28 29 30 31 32 33 34 35 36 37 38 39 40 41 42 43 44 45 46 47 48 49
463
ASUS45 KBOU 220907
RWRCO

WEATHER ROUNDUP FOR COLORADO
NATIONAL WEATHER SERVICE DENVER/BOULDER CO
300 AM MDT SAT APR 22 2017

NOTE: "FAIR" INDICATES FEW OR NO CLOUDS BELOW 12000 FEET WITH NO
SIGNIFICANT WEATHER AND/OR OBSTRUCTIONS TO VISIBILITY.

COZ001>005-013-030-031-221000-
...NORTHWEST COLORADO...

CITY           SKY/WX    TMP DP  RH WIND       PRES   REMARKS
CRAIG          CLOUDY    32  28  85 CALM      30.23S
HAYDEN         FAIR      30  25  80 SE3       30.23R
MEEKER         CLOUDY    32  28  85 SE5       30.23R WCI  27
MOUNT WERNER   NOT AVBL
STEAMBOAT SPGS MOCLDY    31  29  89 SE5       30.22S WCI  27
WALDEN           N/A     18  14  86 SE7       30.23S WCI   8
$$

COZ006>008-011-221000-
...WEST CENTRAL VALLEYS...

CITY           SKY/WX    TMP DP  RH WIND       PRES   REMARKS
GRAND JUNCTION FAIR      46  26  45 CALM      30.15R
MONTROSE       FAIR      32  22  66 SE6       30.17S WCI  26
EAGLE          FAIR      28  26  92 CALM      30.24F
RIFLE          MOCLDY    36  32  85 E3        30.20S
DELTA          FAIR      40  22  47 CALM      30.16R
NUCLA          FAIR      36  19  51 SE5       30.19R
$$

COZ017>023-064>068-221000-
...SOUTHWEST COLORADO...

CITY           SKY/WX    TMP DP  RH WIND       PRES   REMARKS
DURANGO        FAIR      30  13  49 SW6       30.10F WCI  24
CORTEZ         FAIR      30  16  56 E6        30.14S WCI  24
PAGOSA SPRINGS FAIR      30  15  53 CALM      30.14S
TELLURIDE      FAIR      30  16  57 SE3       30.20S
WOLF CREEK PAS FAIR      19  12  73 N5        30.26F WCI  13
$$

COZ009-010-012-014-032>034-037-058>063-221000-
...CENTRAL COLORADO...

CITY           SKY/WX    TMP DP  RH WIND       PRES   REMARKS
ASPEN          CLOUDY    30  23  75 S3        30.19S
BUENA VISTA    FAIR      31  22  70 NW8       30.19S WCI  23
COPPER MTN     FLURRIES  19  14  79 MISG      30.21F
BERTHOUD PASS  SNOW      14   3  62 N7        30.21F VSB<1/4 WCI   4
COTTONWOOD PAS FAIR      30  19  64 CALM      30.21S
GUNNISON       FAIR      28  20  71 NW5       30.19S WCI  23
KREMMLING      FAIR      34  30  86 CALM      30.22F
LEADVILLE      CLOUDY    17  13  84 N3        30.20S
MONARCH PASS   MOCLDY    19  18  93 E10       30.30F WCI   8
SALIDA         MOCLDY    36  27  70 CALM      30.27S
SUNLIGHT       CLOUDY    21  19  93 MISG      30.26S
WILKERSON PASS CLOUDY   N/A N/A N/A CALM      30.24S HAZE
$$

COZ069>075-221000-
...SAN LUIS VALLEY/SANGRE DE CRISTO MOUNTAINS...

CITY           SKY/WX    TMP DP  RH WIND       PRES   REMARKS
ALAMOSA        FAIR      29  23  78 N3        30.15F
LA VETA PASS   FOG       27  23  86 N14G20    30.30F VSB 3/4 WCI  15
SAGUACHE       FAIR      32  16  51 N10       30.16S WCI  24
$$

COZ035-036-038>040-221000-
...NORTHERN COLORADO FRONT RANGE...

CITY           SKY/WX    TMP DP  RH WIND       PRES   REMARKS
DENVER INTL AP LGT RAIN  37  34  89 SE9       30.21F
DMNS CITY PARK   N/A     39  36  91 E2G10     30.21S
AURORA         DRIZZLE   37  36  99 E5        30.22F
FRONT RANGE AP LGT RAIN  37  36  93 E12       30.22F
ERIE MUNI ARPT DRIZZLE   39  37  93 E5        30.22S
BOULDER MUN AP DRIZZLE   37  37 100 NE5       30.22R
CENTENNIAL     CLOUDY    36  34  92 CALM      30.21F
BROOMFIELD     DRIZZLE   37  36  93 E3        30.22S
FORT COLLINS   LGT RAIN  39  37  92 SE7       30.23F
LONGMONT       FLURRIES  41  39  91 E3        30.24S
$$

COZ041-046-047-076>085-087-088-221000-
...PIKES PEAK/PALMER DIVIDE AND SOUTHERN FOOTHILLS...

CITY           SKY/WX    TMP DP  RH WIND       PRES   REMARKS
COLO. SPRINGS  CLOUDY    35  34  96 E9        30.22S WCI  28
A. F. ACADEMY  CLOUDY    36  30  79 NW6       30.20S
SCHRIEVER AFB  LGT SNOW  34  34 100 S7        30.23S WCI  28
ELLICOTT       CLOUDY   N/A N/A N/A SE7       30.20F
FALCON         CLOUDY    33  33  99 SE3       30.22S
FORT CARSON    CLOUDY    35  34  95 E8        30.22R WCI  29
LIMON          CLOUDY    37  35  92 E3        30.23S
MONUMENT HILL  CLOUDY    30  30 100 CALM      30.22F
TRINIDAD       LGT RAIN  39  36  89 E7        30.19F
$$

COZ042>045-048>051-090-091-221000-
...NORTHEAST COLORADO...

CITY           SKY/WX    TMP DP  RH WIND       PRES   REMARKS
GREELEY ARPT   LGT RAIN  40  38  93 SE7       30.25S
AKRON          FOG       34  33  96 N3        30.23S VSB 1/4
BURLINGTON     CLOUDY    41  39  93 NE8       30.23S
WRAY           NOT AVBL
STERLING       MOCLDY    36  36 100 NW3       30.24S
HOLYOKE        CLOUDY    43  41  93 NE5       30.25S
FORT MORGAN    CLOUDY    38  37  96 SW5       30.25R
$$

COZ086-089-092>099-221000-
...SOUTHEAST COLORADO...

CITY           SKY/WX    TMP DP  RH WIND       PRES   REMARKS
PUEBLO         LGT RAIN  41  38  89 E9        30.21F
LA JUNTA       CLOUDY    43  36  76 NE6       30.22F
LAMAR          MOCLDY    42  38  85 CALM      30.21S
SPRINGFIELD      N/A     39  37  92 N12       30.20S
$$




USA.gov is the U.S. government's official web portal to all federal, state and local government web resources and services.